GW3912 Weather Reports


time (UTC)temp
C
wind
direction
speed
KPH
gust
KPH
rain 1hr
cm
rain 24hr
cm
rain mn
cm
humidity
%
barometer
mb
20260507085505 22 108 1.6 11.3 0.00 0.00 0.00 77 1012.9
20260507085006 22 171 1.6 11.3 0.00 0.00 0.00 76 1012.9
20260507084518 22 234 1.6 8.0 0.00 0.00 0.00 76 1013.0
20260507084009 22 192 0.0 14.5 0.00 0.00 0.00 76 1012.8
20260507083511 22 153 0.0 14.5 0.00 0.00 0.00 75 1012.6
20260507083020 22 142 0.0 4.8 0.00 0.00 0.00 75 1012.4
20260507082506 23 172 0.0 4.8 0.00 0.00 0.00 75 1012.4
20260507082015 23 62 0.0 8.0 0.00 0.00 0.00 75 1012.3
20260507081522 23 130 1.6 11.3 0.00 0.00 0.00 75 1012.3
20260507081008 23 161 1.6 11.3 0.00 0.00 0.00 76 1012.1
20260507080504 23 210 3.2 12.9 0.00 0.00 0.00 76 1012.3
20260507080007 23 131 1.6 12.9 0.00 0.00 0.00 76 1012.3
20260507075504 23 135 1.6 11.3 0.00 0.00 0.00 77 1012.2
20260507075005 22 267 0.0 11.3 0.00 0.00 0.00 78 1012.1
20260507074512 22 171 0.0 6.4 0.00 0.00 0.00 78 1012.1
20260507074006 22 232 0.0 6.4 0.00 0.00 0.00 78 1011.9
20260507073504 22 141 0.0 6.4 0.00 0.00 0.00 78 1011.8
20260507073016 22 180 1.6 4.8 0.00 0.00 0.00 79 1011.6
20260507072505 22 101 0.0 4.8 0.00 0.00 0.00 79 1011.7
20260507072009 23 207 0.0 4.8 0.00 0.00 0.00 78 1011.3
20260507071521 23 200 0.0 8.0 0.00 0.00 0.00 78 1011.4
20260507071009 23 198 1.6 8.0 0.00 0.00 0.00 78 1011.6
20260507070511 23 159 1.6 6.4 0.00 0.00 0.00 79 1012.2
20260507070026 23 243 1.6 8.0 0.00 0.00 0.00 79 1012.5
20260507065509 23 190 0.0 9.7 0.00 0.00 0.00 79 1012.4
20260507065005 23 166 1.6 9.7 0.00 0.00 0.00 79 1012.7
20260507064508 23 151 1.6 8.0 0.00 0.00 0.00 79 1012.6
20260507064005 22 219 0.0 4.8 0.00 0.00 0.00 79 1012.5
20260507063506 23 49 0.0 4.8 0.00 0.00 0.00 79 1012.8
20260507063026 22 159 1.6 6.4 0.00 0.00 0.00 78 1012.7
20260507062507 23 209 1.6 6.4 0.00 0.00 0.00 78 1012.8
20260507062007 23 143 0.0 6.4 0.00 0.00 0.00 78 1013.1
20260507061524 22 177 0.0 8.0 0.00 0.00 0.00 78 1013.1
20260507061009 23 194 0.0 8.0 0.00 0.00 0.00 78 1013.3
20260507060508 23 161 0.0 4.8 0.00 0.00 0.00 78 1013.5
20260507060036 22 219 1.6 6.4 0.00 0.00 0.00 78 1013.6
20260507055509 23 170 0.0 9.7 0.00 0.00 0.00 78 1013.6
20260507055016 23 219 0.0 9.7 0.00 0.00 0.00 78 1013.7
20260507054527 23 165 1.6 9.7 0.00 0.00 0.00 78 1013.8
20260507054010 23 187 0.0 4.8 0.00 0.00 0.00 78 1014.0
20260507053505 23 200 0.0 11.3 0.00 0.00 0.00 78 1014.2
20260507053029 23 144 0.0 11.3 0.00 0.00 0.00 78 1014.3
20260507052505 23 283 0.0 8.0 0.00 0.00 0.00 78 1014.2
20260507052008 23 196 0.0 8.0 0.00 0.00 0.00 78 1014.3
20260507051516 23 92 0.0 6.4 0.00 0.00 0.00 78 1014.2
20260507051008 23 123 1.6 4.8 0.00 0.00 0.00 78 1014.0
20260507050510 23 155 0.0 4.8 0.00 0.00 0.00 78 1014.0
20260507050032 23 122 0.0 8.0 0.00 0.00 0.00 78 1014.3
20260507045507 23 167 1.6 8.0 0.00 0.00 0.00 78 1014.4
20260507045008 23 47 0.0 6.4 0.00 0.00 0.00 78 1014.4
20260507044524 23 189 0.0 4.8 0.00 0.00 0.00 78 1014.3
20260507044008 23 236 0.0 4.8 0.00 0.00 0.00 79 1014.2
20260507043506 23 44 0.0 4.8 0.00 0.00 0.00 79 1014.2
20260507043025 22 260 0.0 6.4 0.00 0.00 0.00 79 1014.2
20260507042506 22 146 0.0 6.4 0.00 0.00 0.00 79 1014.2
20260507042002 22 109 0.0 3.2 0.00 0.00 0.00 79 1014.3
20260507041516 23 38 0.0 6.4 0.00 0.00 0.00 79 1014.3
20260507041004 22 184 0.0 6.4 0.00 0.00 0.00 79 1014.1
20260507040508 23 146 0.0 8.0 0.00 0.00 0.00 79 1014.2
20260507040020 23 188 0.0 8.0 0.00 0.00 0.00 79 1014.2
20260507035508 23 229 0.0 3.2 0.00 0.00 0.00 79 1014.2
20260507035008 23 196 0.0 4.8 0.00 0.00 0.00 79 1014.1
20260507034533 23 234 1.6 8.0 0.00 0.00 0.00 79 1014.0
20260507034014 23 169 1.6 8.0 0.00 0.00 0.00 79 1014.0
20260507033509 23 250 1.6 6.4 0.00 0.00 0.00 80 1013.9
20260507033026 23 255 0.0 6.4 0.00 0.00 0.00 80 1013.9
20260507032507 23 229 0.0 4.8 0.00 0.00 0.00 80 1013.7
20260507032014 23 90 0.0 4.8 0.00 0.00 0.00 80 1013.8
20260507031527 23 186 1.6 4.8 0.00 0.00 0.00 80 1013.9
20260507031010 23 194 1.6 4.8 0.00 0.00 0.00 80 1013.8
20260507030507 23 204 0.0 4.8 0.00 0.00 0.00 79 1013.7
20260507030016 23 220 0.0 4.8 0.00 0.00 0.00 79 1013.5
20260507025506 23 200 0.0 6.4 0.00 0.00 0.00 80 1013.6
20260507025008 23 209 0.0 6.4 0.00 0.00 0.00 80 1014.0
20260507024526 23 177 0.0 4.8 0.00 0.00 0.00 80 1014.0
20260507024011 22 132 0.0 4.8 0.00 0.00 0.00 80 1013.9
20260507023510 22 115 1.6 4.8 0.00 0.00 0.00 80 1013.8
20260507023025 22 215 0.0 6.4 0.00 0.00 0.00 80 1013.5
20260507022507 22 229 0.0 6.4 0.00 0.00 0.00 79 1013.3
20260507022013 22 215 0.0 3.2 0.00 0.00 0.00 78 1013.5
20260507021529 22 215 0.0 6.4 0.00 0.00 0.00 78 1013.6
20260507021007 22 194 0.0 6.4 0.00 0.00 0.00 78 1013.8
20260507020507 22 197 0.0 3.2 0.00 0.00 0.00 78 1013.8
20260507020027 22 214 0.0 3.2 0.00 0.00 0.00 79 1014.1
20260507015507 22 203 0.0 4.8 0.00 0.00 0.00 79 1014.1
20260507015007 22 200 0.0 4.8 0.00 0.00 0.00 79 1014.2
20260507014521 22 175 0.0 4.8 0.00 0.00 0.00 78 1014.2
20260507014009 22 195 1.6 6.4 0.00 0.00 0.00 78 1014.3
20260507013508 22 178 1.6 6.4 0.00 0.00 0.00 78 1014.4
20260507013004 22 275 0.0 6.4 0.00 0.00 0.00 77 1014.2
20260507012503 22 236 0.0 6.4 0.00 0.00 0.00 77 1014.1
20260507012004 22 192 0.0 3.2 0.00 0.00 0.00 77 1014.2
20260507011508 22 182 0.0 4.8 0.00 0.00 0.00 77 1014.4
20260507011004 22 197 0.0 4.8 0.00 0.00 0.00 76 1014.5
20260507010503 22 130 0.0 4.8 0.00 0.00 0.00 76 1014.5
20260507010012 22 190 0.0 6.4 0.00 0.00 0.00 76 1014.5
20260507005503 22 134 0.0 6.4 0.00 0.00 0.00 76 1014.5
20260507005010 22 205 0.0 11.3 0.00 0.00 0.00 76 1014.6
20260507004517 22 179 0.0 11.3 0.00 0.00 0.00 76 1014.5
20260507004008 22 175 0.0 4.8 0.00 0.00 0.00 76 1014.4
20260507003507 22 212 0.0 3.2 0.00 0.00 0.00 76 1014.3
20260507003023 22 151 0.0 3.2 0.00 0.00 0.00 75 1014.3
20260507002510 22 187 0.0 3.2 0.00 0.00 0.00 75 1014.5
20260507002012 23 199 0.0 3.2 0.00 0.00 0.00 75 1014.4
20260507001504 23 246 0.0 3.2 0.00 0.00 0.00 74 1014.3
20260507001007 23 186 0.0 4.8 0.00 0.00 0.00 74 1014.3
20260507000504 23 168 0.0 4.8 0.00 0.00 0.00 73 1014.3
20260507000006 23 177 0.0 3.2 0.00 0.00 0.00 73 1014.3
20260506235505 23 209 0.0 12.9 0.00 0.00 0.00 72 1014.5
20260506235004 23 100 1.6 12.9 0.00 0.00 0.00 71 1014.5
20260506234519 23 179 0.0 4.8 0.00 0.00 0.00 71 1014.5
20260506234007 23 185 0.0 4.8 0.00 0.00 0.00 71 1014.6
20260506233507 23 135 0.0 4.8 0.00 0.00 0.00 70 1014.5
20260506233017 23 192 0.0 3.2 0.00 0.00 0.00 70 1014.3
20260506232507 23 92 0.0 3.2 0.00 0.00 0.00 69 1014.3
20260506232007 23 115 0.0 8.0 0.00 0.00 0.00 69 1014.3
20260506231526 23 169 1.6 8.0 0.00 0.00 0.00 68 1014.3
20260506231009 23 183 0.0 6.4 0.00 0.00 0.00 68 1014.4
20260506230509 24 169 1.6 6.4 0.00 0.00 0.00 67 1014.4
20260506230008 24 166 0.0 6.4 0.00 0.00 0.00 66 1014.4
20260506225504 24 131 0.0 8.0 0.00 0.00 0.00 66 1014.2
20260506225004 24 216 1.6 8.0 0.00 0.00 0.00 66 1014.4
20260506224510 24 273 1.6 6.4 0.00 0.00 0.00 65 1014.3
20260506224003 24 176 0.0 4.8 0.00 0.00 0.00 64 1014.4
20260506223504 25 224 1.6 4.8 0.00 0.00 0.00 64 1014.3
20260506223016 25 227 0.0 8.0 0.00 0.00 0.00 63 1014.1
20260506222507 25 177 0.0 8.0 0.00 0.00 0.00 62 1014.0
20260506222016 25 220 0.0 8.0 0.00 0.00 0.00 62 1014.1
20260506221521 25 243 0.0 8.0 0.00 0.00 0.00 62 1014.1
20260506221015 25 229 0.0 8.0 0.00 0.00 0.00 62 1014.1
20260506220506 25 196 0.0 14.5 0.00 0.00 0.00 63 1014.1
20260506220029 25 202 3.2 14.5 0.00 0.00 0.00 61 1014.0
20260506215514 25 245 1.6 8.0 0.00 0.00 0.00 62 1014.0
20260506215007 26 172 3.2 8.0 0.00 0.00 0.00 61 1014.2
20260506214509 26 154 1.6 8.0 0.00 0.00 0.00 60 1014.2
20260506214006 26 248 1.6 11.3 0.00 0.00 0.00 60 1014.3
20260506213505 26 95 1.6 11.3 0.00 0.00 0.00 60 1014.3
20260506213013 26 69 1.6 9.7 0.00 0.00 0.00 60 1014.4
20260506212504 26 130 1.6 9.7 0.00 0.00 0.00 59 1014.4
20260506212008 26 202 3.2 8.0 0.00 0.00 0.00 58 1014.4
20260506211525 26 15 0.0 11.3 0.00 0.00 0.00 58 1014.4
20260506211006 26 146 1.6 11.3 0.00 0.00 0.00 58 1014.4
20260506210512 26 204 1.6 8.0 0.00 0.00 0.00 59 1014.3
20260506210032 26 165 1.6 8.0 0.00 0.00 0.00 57 1014.4
20260506205510 26 189 0.0 4.8 0.00 0.00 0.00 59 1014.3
20260506205015 26 190 1.6 8.0 0.00 0.00 0.00 57 1014.3
20260506204525 26 159 1.6 11.3 0.00 0.00 0.00 57 1014.2
20260506204012 27 167 1.6 11.3 0.00 0.00 0.00 56 1014.3
20260506203511 27 165 1.6 9.7 0.00 0.00 0.00 57 1014.5
20260506203009 27 120 1.6 9.7 0.00 0.00 0.00 56 1014.6
20260506202509 27 163 0.0 6.4 0.00 0.00 0.00 57 1014.6
20260506202006 27 206 1.6 16.1 0.00 0.00 0.00 58 1014.6
20260506201516 27 168 0.0 16.1 0.00 0.00 0.00 58 1014.8
20260506201011 27 198 1.6 8.0 0.00 0.00 0.00 56 1014.8
20260506200507 27 233 1.6 6.4 0.00 0.00 0.00 57 1014.9
20260506200035 27 109 1.6 9.7 0.00 0.00 0.00 57 1014.9
20260506195510 27 303 3.2 9.7 0.00 0.00 0.00 56 1014.9
20260506195013 28 211 1.6 9.7 0.00 0.00 0.00 56 1015.1
20260506194522 28 169 1.6 8.0 0.00 0.00 0.00 55 1015.1
20260506194009 28 178 1.6 6.4 0.00 0.00 0.00 55 1015.1
20260506193509 28 161 1.6 6.4 0.00 0.00 0.00 54 1015.1
20260506193028 28 139 0.0 4.8 0.00 0.00 0.00 55 1015.2
20260506192507 28 157 0.0 6.4 0.00 0.00 0.00 55 1015.1
20260506192011 29 185 0.0 6.4 0.00 0.00 0.00 55 1014.9
20260506191528 29 189 0.0 6.4 0.00 0.00 0.00 55 1015.1
20260506191005 29 239 1.6 6.4 0.00 0.00 0.00 54 1015.2
20260506190508 29 205 1.6 11.3 0.00 0.00 0.00 53 1015.4
20260506190019 29 227 1.6 11.3 0.00 0.00 0.00 53 1015.4
20260506185508 29 214 1.6 11.3 0.00 0.00 0.00 55 1015.6
20260506185009 29 160 0.0 4.8 0.00 0.00 0.00 54 1015.7
20260506184524 29 118 0.0 4.8 0.00 0.00 0.00 56 1015.8
20260506184010 29 238 0.0 4.8 0.00 0.00 0.00 55 1015.9
20260506183511 29 86 0.0 4.8 0.00 0.00 0.00 56 1015.9
20260506183025 29 105 0.0 4.8 0.00 0.00 0.00 55 1016.2
20260506182508 29 143 0.0 8.0 0.00 0.00 0.00 56 1016.2
20260506182010 28 28 0.0 8.0 0.00 0.00 0.00 57 1016.2
20260506181526 28 174 0.0 4.8 0.00 0.00 0.00 57 1016.1
20260506181008 28 165 0.0 4.8 0.00 0.00 0.00 58 1016.2
20260506180508 28 129 0.0 6.4 0.00 0.00 0.00 60 1016.3
20260506180018 28 180 1.6 6.4 0.00 0.00 0.00 59 1016.3
20260506175507 28 219 0.0 3.2 0.00 0.00 0.00 59 1016.3
20260506175007 28 188 0.0 3.2 0.00 0.00 0.00 61 1016.4
20260506174518 28 193 0.0 4.8 0.00 0.00 0.00 61 1016.6
20260506174010 27 235 0.0 4.8 0.00 0.00 0.00 62 1016.5
20260506173508 27 163 0.0 3.2 0.00 0.00 0.00 63 1016.7
20260506173025 27 165 0.0 3.2 0.00 0.00 0.00 61 1016.8
20260506172509 27 123 0.0 3.2 0.00 0.00 0.00 61 1016.8
20260506172008 27 154 0.0 6.4 0.00 0.00 0.00 61 1016.8
20260506171527 27 202 1.6 6.4 0.00 0.00 0.00 60 1016.9
20260506171011 27 155 1.6 6.4 0.00 0.00 0.00 58 1016.9
20260506170511 27 20 0.0 14.5 0.00 0.00 0.00 58 1016.9
20260506170027 27 141 1.6 14.5 0.00 0.00 0.00 56 1017.0
20260506165508 27 157 0.0 4.8 0.00 0.00 0.00 60 1017.0
20260506165010 27 88 0.0 4.8 0.00 0.00 0.00 59 1016.9
20260506164516 27 147 0.0 6.4 0.00 0.00 0.00 59 1016.8
20260506164008 27 195 1.6 6.4 0.00 0.00 0.00 59 1016.9
20260506163503 27 142 1.6 6.4 0.00 0.00 0.00 61 1017.0
20260506163004 27 182 0.0 9.7 0.00 0.00 0.00 61 1016.9
20260506162503 27 155 1.6 9.7 0.00 0.00 0.00 59 1017.0
20260506162002 27 206 0.0 3.2 0.00 0.00 0.00 61 1017.0
20260506161505 26 150 0.0 9.7 0.00 0.00 0.00 61 1017.1
20260506161004 26 146 0.0 9.7 0.00 0.00 0.00 60 1017.2
20260506160505 26 80 0.0 6.4 0.00 0.00 0.00 61 1017.4
20260506160011 26 131 1.6 6.4 0.00 0.00 0.00 61 1017.4
20260506155507 26 85 0.0 6.4 0.00 0.00 0.00 60 1017.3
20260506155004 26 206 1.6 6.4 0.00 0.00 0.00 60 1017.4
20260506154508 26 241 0.0 6.4 0.00 0.00 0.00 60 1017.3
20260506154003 26 261 0.0 6.4 0.00 0.00 0.00 60 1017.4
20260506153503 26 266 0.0 6.4 0.00 0.00 0.00 60 1017.4
20260506153003 26 161 0.0 6.4 0.00 0.00 0.00 59 1017.4
20260506152503 26 182 1.6 8.0 0.00 0.00 0.00 59 1017.4
20260506152004 26 123 1.6 8.0 0.00 0.00 0.00 57 1017.4
20260506151504 26 140 1.6 6.4 0.00 0.00 0.00 57 1017.5
20260506151004 26 205 0.0 4.8 0.00 0.00 0.00 57 1017.4
20260506150506 27 184 1.6 11.3 0.00 0.00 0.00 56 1017.3
20260506150005 27 153 3.2 11.3 0.00 0.00 0.00 54 1017.4
20260506145506 27 156 0.0 6.4 0.00 0.00 0.00 55 1017.3
20260506145005 26 107 1.6 6.4 0.00 0.00 0.00 53 1017.3
20260506144508 26 154 1.6 16.1 0.00 0.00 0.00 54 1017.2
20260506144004 26 82 3.2 16.1 0.00 0.00 0.00 52 1017.2
20260506143504 26 62 0.0 11.3 0.00 0.00 0.00 54 1017.1
20260506143007 26 182 0.0 8.0 0.00 0.00 0.00 56 1017.0
20260506142504 26 244 0.0 6.4 0.00 0.00 0.00 56 1017.0
20260506142002 26 92 1.6 14.5 0.00 0.00 0.00 56 1017.0
20260506141504 26 182 3.2 14.5 0.00 0.00 0.00 56 1017.0
20260506141004 26 194 0.0 6.4 0.00 0.00 0.00 58 1017.1
20260506140504 26 34 0.0 6.4 0.00 0.00 0.00 57 1017.1
20260506140006 26 150 0.0 9.7 0.00 0.00 0.00 57 1017.1
20260506135505 25 210 1.6 9.7 0.00 0.00 0.00 58 1017.1
20260506135008 25 142 1.6 11.3 0.00 0.00 0.00 56 1017.0
20260506134510 25 36 0.0 11.3 0.00 0.00 0.00 59 1016.8
20260506134005 25 218 0.0 6.4 0.00 0.00 0.00 60 1016.9
20260506133504 25 117 1.6 6.4 0.00 0.00 0.00 60 1016.8
20260506133013 25 183 0.0 4.8 0.00 0.00 0.00 60 1016.8
20260506132504 25 227 0.0 4.8 0.00 0.00 0.00 63 1016.8
20260506132013 24 175 0.0 3.2 0.00 0.00 0.00 64 1016.9
20260506131513 24 192 0.0 3.2 0.00 0.00 0.00 66 1016.8
20260506131004 23 190 0.0 6.4 0.00 0.00 0.00 68 1016.7
20260506130504 23 240 1.6 6.4 0.00 0.00 0.00 68 1016.7
20260506130010 23 19 0.0 4.8 0.00 0.00 0.00 71 1016.7
20260506125503 22 140 1.6 4.8 0.00 0.00 0.00 71 1016.6
20260506125004 22 153 0.0 3.2 0.00 0.00 0.00 75 1016.5
20260506124510 21 153 0.0 3.2 0.00 0.00 0.00 76 1016.6
20260506124004 21 82 0.0 3.2 0.00 0.00 0.00 79 1016.5
20260506123505 20 210 0.0 3.2 0.00 0.00 0.00 81 1016.5
20260506123014 20 201 0.0 4.8 0.00 0.00 0.00 82 1016.5
20260506122505 20 210 0.0 4.8 0.00 0.00 0.00 84 1016.6
20260506122008 19 217 0.0 3.2 0.00 0.00 0.00 86 1016.6
20260506121515 19 182 0.0 3.2 0.00 0.00 0.00 87 1016.7
20260506121005 18 279 0.0 3.2 0.00 0.00 0.00 89 1016.6
20260506120505 18 187 0.0 1.6 0.00 0.00 0.00 91 1016.6
20260506120017 18 111 0.0 1.6 0.00 0.00 0.00 92 1016.5
20260506115504 18 148 0.0 0.0 0.00 0.00 0.00 92 1016.5
20260506115008 17 144 0.0 0.0 0.00 0.00 0.00 92 1016.5
20260506114513 17 144 0.0 0.0 0.00 0.00 0.00 92 1016.4
20260506114005 16 144 0.0 0.0 0.00 0.00 0.00 91 1016.3
20260506113504 16 144 0.0 0.0 0.00 0.00 0.00 91 1016.2
20260506113011 16 144 0.0 0.0 0.00 0.00 0.00 91 1016.3
20260506112508 16 144 0.0 0.0 0.00 0.00 0.00 90 1016.1
20260506112008 16 144 0.0 0.0 0.00 0.00 0.00 90 1016.0
20260506111515 16 144 0.0 0.0 0.00 0.00 0.00 90 1016.0
20260506111007 16 144 0.0 0.0 0.00 0.00 0.00 90 1016.1
20260506110507 16 144 0.0 0.0 0.00 0.00 0.00 90 1016.1
20260506110021 15 144 0.0 0.0 0.00 0.00 0.00 90 1016.0
20260506105507 15 144 0.0 0.0 0.00 0.00 0.00 89 1016.0
20260506105006 15 144 0.0 0.0 0.00 0.00 0.00 89 1016.0
20260506104516 15 144 0.0 0.0 0.00 0.00 0.00 89 1016.0
20260506104007 15 144 0.0 0.0 0.00 0.00 0.00 89 1016.0
20260506103504 15 144 0.0 0.0 0.00 0.00 0.00 89 1015.8
20260506103023 15 144 0.0 0.0 0.00 0.00 0.00 88 1015.8
20260506102507 15 144 0.0 0.0 0.00 0.00 0.00 88 1015.8
20260506102007 15 144 0.0 0.0 0.00 0.00 0.00 88 1015.8
20260506101515 15 144 0.0 0.0 0.00 0.00 0.00 88 1015.8
20260506101008 15 144 0.0 0.0 0.00 0.00 0.00 88 1015.8
20260506100507 15 144 0.0 0.0 0.00 0.00 0.00 89 1015.9
20260506100022 15 144 0.0 0.0 0.00 0.00 0.00 88 1015.8
20260506095507 15 144 0.0 0.0 0.00 0.00 0.00 88 1015.8
20260506095008 15 144 0.0 0.0 0.00 0.00 0.00 88 1015.6
20260506094530 15 144 0.0 0.0 0.00 0.00 0.00 88 1015.7
20260506094009 15 144 0.0 0.0 0.00 0.00 0.00 88 1015.7
20260506093508 15 144 0.0 0.0 0.00 0.00 0.00 88 1015.7
20260506093039 16 144 0.0 0.0 0.00 0.00 0.00 88 1015.8
20260506092504 16 144 0.0 0.0 0.00 0.00 0.00 88 1015.8
20260506092004 16 144 0.0 0.0 0.00 0.00 0.00 88 1015.8
20260506091512 16 144 0.0 0.0 0.00 0.00 0.00 87 1015.8
20260506091005 16 144 0.0 0.0 0.00 0.00 0.00 88 1015.8
20260506090505 16 144 0.0 0.0 0.00 0.00 0.00 87 1015.9
20260506090017 16 144 0.0 0.0 0.00 0.00 0.00 87 1015.7